View from above orbital plane
|
View from above satellite
|
Ground track
|
The orbit data is extracted from the following two-line orbital elements,
1 25989U 99066A 18113.78265295 -.00000114 00000-0 00000+0 0 9997
2 25989 70.1014 349.0496 8037196 95.9813 359.6854 0.50136247 22442
Epoch (UTC): | 23 April 2018 18:47:01 |
Eccentricity: | 0.8037196 |
inclination: | 70.1014° |
perigee height: | 6759 km |
apogee height: | 114347 km |
right ascension of ascending node: | 349.0496° |
argument of perigee: | 95.9813° |
revolutions per day: | 0.50136247 |
mean anomaly at epoch: | 359.6854° |
orbit number at epoch: | 2244 |
The dashed part of the orbit path shows where the satellite is in the earth's shadow,
|
|